Change the Weather History Date:

Wednesday, January 30, 2013

  Actual Average (KFFM) Record (KFFM)
Temperature  
Mean Temperature 5 °F -  
Max Temperature 14 °F 19 °F 43 °F (1992)
Min Temperature -4 °F -2 °F -33 °F (1951)
Degree Days  
Heating Degree Days 60    
Moisture  
Dew Point 1 °F    
Average Humidity 79    
Maximum Humidity 86    
Minimum Humidity 72    
Precipitation  
Precipitation 0.00 in - - ()
Sea Level Pressure  
Sea Level Pressure 29.88 in    
Wind  
Wind Speed 17 mph (NNW)    
Max Wind Speed 21 mph    
Max Gust Speed 28 mph    
Visibility 7 miles    
Events      
Averages and records for this station are not official NWS values.
T = Trace of Precipitation, MM = Missing Value Source: NWS Daily Summary

Daily Weather History Graph

Daily Weather History Graph

Search for Another Location

Airport or City:

Trip Planner

Search our weather history database for the weather conditions in past years. The results will help you decide how hot, cold, wet, or windy it might be!

Date:

Astronomy

Jan. 30, 2013 Rise Set
Actual Time 7:51 AM CST 5:28 PM CST
Civil Twilight 7:19 AM CST 6:00 PM CST
Nautical Twilight 6:43 AM CST 6:37 PM CST
Astronomical Twilight 6:07 AM CST 7:12 PM CST
Moon 9:46 PM CST (1/30) 9:04 AM CST (1/30)
Length of Visible Light 10h 41m
Length of Day
9h 37m
Waning Gibbous, 87% of the Moon is Illuminated
Jan 30
Waning Gibbous
Feb 3
Last Quarter
Feb 10
New
Feb 17
First Quarter
Feb 25
Full

Hourly Weather History & Observations

Time (CST) Temp. Windchill Dew Point Humidity Pressure Visibility Wind Dir Wind Speed Gust Speed Precip Events Conditions
12:15 AM 14.0 °F -2.0 °F 10.4 °F 86% 29.90 in 10.0 mi North 16.1 mph 27.6 mph N/A   Overcast
12:35 AM 14.0 °F -3.0 °F 10.4 °F 86% 29.90 in 10.0 mi North 18.4 mph 24.2 mph N/A   Overcast
12:55 AM 14.0 °F -3.4 °F 10.4 °F 86% 29.89 in 10.0 mi North 19.6 mph 25.3 mph N/A   Overcast
1:15 AM 14.0 °F -3.0 °F 10.4 °F 86% 29.88 in 7.0 mi North 18.4 mph 23.0 mph N/A   Overcast
1:35 AM 14.0 °F -1.4 °F 10.4 °F 86% 29.88 in 10.0 mi North 15.0 mph - N/A   Overcast
1:55 AM 14.0 °F -2.0 °F 10.4 °F 86% 29.88 in 10.0 mi North 16.1 mph 21.9 mph N/A   Overcast
2:15 AM 14.0 °F -2.5 °F 8.6 °F 79% 29.88 in 10.0 mi North 17.3 mph 23.0 mph N/A   Overcast
2:35 AM 14.0 °F -3.9 °F 8.6 °F 79% 29.88 in 10.0 mi North 20.7 mph 27.6 mph N/A   Overcast
2:55 AM 12.2 °F -4.3 °F 6.8 °F 79% 29.88 in 10.0 mi North 16.1 mph 20.7 mph N/A   Overcast
3:15 AM 12.2 °F -3.7 °F 6.8 °F 79% 29.89 in 10.0 mi North 15.0 mph 23.0 mph N/A   Overcast
3:35 AM 12.2 °F -4.8 °F 6.8 °F 79% 29.88 in 10.0 mi North 17.3 mph 25.3 mph N/A   Overcast
3:55 AM 12.2 °F -2.5 °F 5.0 °F 73% 29.90 in 10.0 mi North 12.7 mph 21.9 mph N/A   Overcast
4:15 AM 12.2 °F -4.3 °F 6.8 °F 79% 29.89 in 10.0 mi North 16.1 mph - N/A   Overcast
4:35 AM 12.2 °F -5.3 °F 5.0 °F 73% 29.90 in 10.0 mi North 18.4 mph 24.2 mph N/A   Overcast
4:55 AM 10.4 °F -8.2 °F 5.0 °F 79% 29.89 in 7.0 mi NNW 19.6 mph 27.6 mph N/A   Overcast
5:15 AM 10.4 °F -8.6 °F 5.0 °F 79% 29.88 in 7.0 mi NNW 20.7 mph 26.5 mph N/A   Overcast
5:55 AM 8.6 °F -10.5 °F 3.2 °F 79% 29.88 in 10.0 mi North 19.6 mph 23.0 mph N/A   Overcast
6:15 AM 8.6 °F -7.0 °F 3.2 °F 79% 29.88 in 10.0 mi North 12.7 mph - N/A   Overcast
6:35 AM 8.6 °F -7.0 °F 3.2 °F 79% 29.89 in 7.0 mi NNW 12.7 mph - N/A   Overcast
6:55 AM 8.6 °F -9.5 °F 3.2 °F 79% 29.89 in 10.0 mi North 17.3 mph 24.2 mph N/A   Overcast
7:15 AM 8.6 °F -9.5 °F 3.2 °F 79% 29.89 in 10.0 mi NNW 17.3 mph - N/A   Overcast
7:35 AM 8.6 °F -10.0 °F 3.2 °F 79% 29.88 in 10.0 mi North 18.4 mph - N/A   Overcast
7:55 AM 8.6 °F -9.5 °F 3.2 °F 79% 29.89 in 10.0 mi NNW 17.3 mph 25.3 mph N/A   Overcast
8:15 AM 8.6 °F -8.9 °F 3.2 °F 79% 29.89 in 10.0 mi NNW 16.1 mph - N/A   Overcast
8:35 AM 8.6 °F -7.7 °F 3.2 °F 79% 29.88 in 10.0 mi NNW 13.8 mph - N/A   Overcast
8:55 AM 8.6 °F -7.7 °F 3.2 °F 79% 29.88 in 10.0 mi NNW 13.8 mph - N/A   Overcast
9:15 AM 10.4 °F -4.8 °F 5.0 °F 79% 29.88 in 10.0 mi NNW 12.7 mph - N/A   Overcast
9:35 AM 10.4 °F -6.0 °F 3.2 °F 73% 29.87 in 10.0 mi NNW 15.0 mph - N/A   Overcast
9:55 AM 10.4 °F -4.1 °F 5.0 °F 79% 29.88 in 10.0 mi NNW 11.5 mph 19.6 mph N/A   Overcast
10:15 AM 10.4 °F -6.0 °F 5.0 °F 79% 29.88 in 10.0 mi NNW 15.0 mph - N/A   Overcast
10:35 AM 10.4 °F -7.2 °F 5.0 °F 79% 29.87 in 7.0 mi NNW 17.3 mph 20.7 mph N/A   Overcast
10:55 AM 10.4 °F -7.7 °F 5.0 °F 79% 29.87 in 5.0 mi NNW 18.4 mph - N/A   Overcast
11:15 AM 10.4 °F -7.7 °F 5.0 °F 79% 29.87 in 7.0 mi NNW 18.4 mph 24.2 mph N/A   Overcast
11:35 AM 10.4 °F -7.7 °F 5.0 °F 79% 29.87 in 7.0 mi NNW 18.4 mph 24.2 mph N/A   Overcast
11:55 AM 10.4 °F -7.7 °F 5.0 °F 79% 29.86 in 1.8 mi NW 18.4 mph - N/A   Overcast
12:15 PM 10.4 °F -6.6 °F 5.0 °F 79% 29.86 in 4.0 mi NW 16.1 mph - N/A   Overcast
12:35 PM 8.6 °F -11.0 °F 3.2 °F 79% 29.85 in 4.0 mi NW 20.7 mph - N/A   Overcast
12:55 PM 8.6 °F -10.0 °F 3.2 °F 79% 29.85 in 7.0 mi NW 18.4 mph - N/A   Overcast
1:15 PM 8.6 °F -10.5 °F 3.2 °F 79% 29.85 in 5.0 mi NW 19.6 mph - N/A   Overcast
1:35 PM 8.6 °F -10.5 °F 3.2 °F 79% 29.85 in 7.0 mi NW 19.6 mph - N/A   Overcast
1:55 PM 8.6 °F -10.0 °F 1.4 °F 73% 29.85 in 5.0 mi NW 18.4 mph - N/A   Overcast
2:15 PM 8.6 °F -11.0 °F 1.4 °F 73% 29.86 in 5.0 mi NW 20.7 mph - N/A   Overcast
2:35 PM 6.8 °F -12.9 °F 1.4 °F 79% 29.85 in 5.0 mi NW 19.6 mph - N/A   Overcast
2:55 PM 6.8 °F -12.4 °F 1.4 °F 79% 29.85 in 4.0 mi NW 18.4 mph - N/A   Overcast
3:15 PM 6.8 °F -11.8 °F 1.4 °F 79% 29.85 in 5.0 mi NW 17.3 mph - N/A   Overcast
3:35 PM 5.0 °F -14.2 °F -0.4 °F 78% 29.86 in 5.0 mi NW 17.3 mph 23.0 mph N/A   Overcast
3:55 PM 5.0 °F -13.6 °F -0.4 °F 78% 29.86 in 7.0 mi NW 16.1 mph - N/A   Overcast
4:15 PM 5.0 °F -14.2 °F -0.4 °F 78% 29.86 in 4.0 mi NW 17.3 mph - N/A   Overcast
4:35 PM 5.0 °F -15.2 °F -0.4 °F 78% 29.86 in 5.0 mi NW 19.6 mph - N/A   Overcast
4:55 PM 3.2 °F -17.1 °F -2.2 °F 78% 29.86 in 10.0 mi NW 18.4 mph - N/A   Overcast
5:15 PM 3.2 °F -15.9 °F -2.2 °F 78% 29.86 in 10.0 mi NW 16.1 mph - N/A   Overcast
5:35 PM 3.2 °F -15.9 °F -4.0 °F 72% 29.86 in 10.0 mi NW 16.1 mph - N/A   Overcast
5:55 PM 3.2 °F -15.3 °F -4.0 °F 72% 29.86 in 10.0 mi NW 15.0 mph - N/A   Overcast
6:15 PM 1.4 °F -18.2 °F -4.0 °F 78% 29.87 in 10.0 mi NW 16.1 mph - N/A   Overcast
6:35 PM 1.4 °F -19.4 °F -4.0 °F 78% 29.87 in 10.0 mi NW 18.4 mph 23.0 mph N/A   Overcast
6:55 PM 1.4 °F -19.4 °F -4.0 °F 78% 29.87 in 7.0 mi NW 18.4 mph 24.2 mph N/A   Overcast
7:15 PM 1.4 °F -19.9 °F -4.0 °F 78% 29.88 in 5.0 mi NW 19.6 mph - N/A   Overcast
7:35 PM -0.4 °F -22.8 °F -5.8 °F 78% 29.88 in 4.0 mi NW 20.7 mph - N/A   Overcast
7:55 PM -0.4 °F -21.7 °F -7.6 °F 72% 29.88 in 3.0 mi NW 18.4 mph 24.2 mph N/A   Overcast
8:15 PM -2.2 °F -23.5 °F -7.6 °F 78% 29.88 in 4.0 mi NW 17.3 mph - N/A   Overcast
8:35 PM -2.2 °F -24.7 °F -7.6 °F 78% 29.88 in 5.0 mi NW 19.6 mph - N/A   Overcast
8:55 PM -2.2 °F -24.7 °F -7.6 °F 78% 29.88 in 7.0 mi NW 19.6 mph - N/A   Overcast
9:15 PM -4.0 °F -25.8 °F -9.4 °F 78% 29.88 in 4.0 mi NW 17.3 mph - N/A   Overcast
9:35 PM -4.0 °F -26.4 °F -9.4 °F 78% 29.89 in 4.0 mi NW 18.4 mph 23.0 mph N/A   Overcast
9:55 PM -4.0 °F -27.0 °F -9.4 °F 78% 29.89 in 4.0 mi NW 19.6 mph 24.2 mph N/A   Overcast
10:15 PM -4.0 °F -27.0 °F -9.4 °F 78% 29.90 in 4.0 mi NW 19.6 mph - N/A   Overcast
10:35 PM -4.0 °F -26.4 °F -9.4 °F 78% 29.90 in 4.0 mi NW 18.4 mph 23.0 mph N/A   Overcast
10:55 PM -4.0 °F -24.5 °F -9.4 °F 78% 29.90 in 4.0 mi NW 15.0 mph 24.2 mph N/A   Overcast
11:15 PM -4.0 °F -23.7 °F -9.4 °F 78% 29.91 in 5.0 mi NW 13.8 mph - N/A   Overcast
11:35 PM -4.0 °F -26.4 °F -9.4 °F 78% 29.91 in 5.0 mi NW 18.4 mph - N/A   Overcast
11:55 PM -4.0 °F -26.4 °F -9.4 °F 78% 29.92 in 5.0 mi NW 18.4 mph - N/A   Overcast